Terug naar catalogus

TOPO 1

ActiefWetenschapSSO
NORAD 4363·PAYLOAD·🇺🇸 United States

Gelanceerd Apr 8, 1970 vanaf Vandenberg Space Force Base

Loading…

Volgende Passages (komende 24 uur)

TLE

VersSource: Space-Track

Epoch: Sep 14, 2026, 13:33 UTC

1 04363U 70025B   26257.56519999 -.00000022  00000-0  37782-4 0  9991
2 04363  99.8800 170.1973 0002485 122.8199   3.1064 13.46702049773222

Volg TOPO 1 in realtime met AllMySat

Download on the App Store